Location: Unspecified
(51.0950°N, 12.9690°E)
Time: 15:10:55
(UTC+00:00)

Cosmos 2278 Rocket - Pass Details

Date: 28 October 2021
Orbit: 841 x 845 km, 71.0° (Epoch: 26 November)

Event Time Altitude Azimuth Distance (km) Brightness Sun altitude
Rises 18:29:53 0° 329° (NNW) 3,417 5.9 -25.7°
Reaches altitude 10° 18:32:21 10° 330° (NNW) 2,478 5.1 -26.1°
Maximum altitude 18:38:04 89° 61° (ENE) 852 2.1 -26.9°
Enters shadow 18:38:24 80° 145° (SE) 863 2.0 -27.0°
